Погода в Мельбурне

США     28°06′55″N   80°39′22″W
темп.,
°C
ветер,
м/с
пор.,
м/с
влажн.,
%
обл.,
%
осадки,
мм/ч
давл.,
гПа
погр.,
м
16 октября, сб
сб1623:00+23св24805 0.0 101464
02:00+22с118019 0.0 101311
05:00+21сз228533 0.0 101319
08:00+21сз23855 0.0 101471
11:00+28ссз245644 0.1 10151222
14:00+31с34454 0.1 10121995
17:00+29св33558 0.0 10121033
20:00+24вюв23720 0.0 101350
17 октября, вс
вс1723:00+23ю22749 0.0 101427
02:00+22зюз228196 0.0 101432
05:00+22ссз398289 0.0 1013293
08:00+22с4973100 0.0 1015451
11:00+26с55635 0.0 1016916
14:00+26ссв677190 0.2 1015927
17:00+25ссв776639 0.1 10151041
20:00+22ссв510660 0.1 1017422
18 октября, пн
пн1823:00+21ссв49670 0.0 1018286
02:00+20ссв386924 0.0 1018174
05:00+20св3868100 0.0 1017176
08:00+20св386914 0.0 1018171
11:00+25всв665221 0.0 10191603
14:00+26всв664999 0.0 10181740
17:00+25всв55525 0.0 10171654
20:00+21св36645 0.0 1018114
19 октября, вт
вт1923:00+21всв346582 0.0 101961
02:00+21всв3662100 0.0 1019104
05:00+21всв346392 0.0 101951
08:00+20св236831 0.0 102046
11:00+26всв665044 0.0 10211817
14:00+27всв564726 0.0 10201814
17:00+25в565467 0.0 10191101
20:00+23в485665 0.0 1021292
20 октября, ср
ср2023:00+23в486291 0.1 1021390
02:00+23в3763100 0.1 1021237
05:00+23в3767100 0.2 1020211
08:00+23в3768100 0.3 1022224
11:00+26в565993 0.2 10231071
14:00+27в565849 0.4 10211607
17:00+26в565869 0.1 10201120
20:00+24в3764100 0.1 1021288